Location: Wolf Lake
(46.8518°N, 80.6381°W)
Time: 10:46:40
(UTC-04:00)

ISS - Pass Details

Date: 16 March 2026
Orbit: 416 x 425 km, 51.6° (Epoch: 19 April)

Event Time Altitude Azimuth Distance (km) Brightness Sun altitude
Rises 20:07:50 0° 249° (WSW) 2,382 1.4 -7.3°
Reaches altitude 10° 20:09:57 10° 251° (WSW) 1,517 0.3 -7.7°
Maximum altitude 20:13:21 73° 336° (NNW) 449 -3.5 -8.3°
Drops below altitude 10° 20:16:45 10° 62° (ENE) 1,517 -1.4 -8.8°
Enters shadow 20:17:04 - 63° (ENE) 1,642 -1.2 -8.9°
